WFO RAH Logo

WFO RAH Text Data
RWRRAH
NORTH CAROLINA WEATHER ROUNDUP
NATIONAL WEATHER SERVICE RALEIGH NC
800 AM EST THU JAN 17 2008

NOTE: "FAIR" INDICATES FEW OR NO CLOUDS BELOW 12,000 FEET WITH NO
SIGNIFICANT WEATHER AND/OR OBSTRUCTIONS TO VISIBILITY.

NCZ001-053-055-056-065-067-171400-
WESTERN NORTH CAROLINA
  
CITY           SKY/WX    TMP DP  RH WIND       PRES   REMARKS
ASHEVILLE      FRZ RAIN  30  30 100 CALM      30.05S FOG              
JEFFERSON      SNOW      27  23  86 SW3       30.03S VSB 1/4          
MORGANTON      LGT SNOW  30  30 100 N6        30.15F WCI  24          
HICKORY        FRZ RAIN  31  30  96 N7        30.12S FOG     WCI  24  
RUTHERFORDTON  LGT SNOW  36  34  93 CALM      30.10F                  
$$
 
NCZ021-022-025-041-071-084-088-171400-
CENTRAL NORTH CAROLINA
  
CITY           SKY/WX    TMP DP  RH WIND       PRES   REMARKS
CHARLOTTE      LGT RAIN  33  31  92 N8        30.09F FOG     WCI  26  
GREENSBORO     FRZ RAIN  32  28  86 NE13      30.14F FOG     WCI  22  
WINSTON-SALEM  FRZ RAIN  31  28  89 NE12      30.14S FOG     WCI  22  
RALEIGH-DURHAM LGT RAIN  34  30  86 E9        30.18F FOG     WCI  26  
FORT BRAGG     DRIZZLE   34  31  89 NE13      30.14F FOG     WCI  25  
FAYETTEVILLE   LGT RAIN N/A N/A N/A MISG        N/A                   
$$
 
NCZ011-015-027-028-043-044-047-080-103-171400-
NORTHEASTERN NORTH CAROLINA
  
CITY           SKY/WX    TMP DP  RH WIND       PRES   REMARKS
ROANOKE RAPIDS LGT RAIN  34  29  82 NE6       30.26F WCI  29          
ROCKY MT-WILSO CLOUDY    34  29  82 NE8       30.21F WCI  27          
GREENVILLE     DRIZZLE   37  32  81 E7        30.21F WCI  32          
WASHINGTON     RAIN      39  32  75 NE8       30.22F WCI  34          
ELIZABETH CITY CLOUDY    41  34  76 E8        30.25F                  
MANTEO         CLOUDY    45  39  81 NE14      30.24F                  
CAPE HATTERAS  LGT RAIN  45  42  89 NE10G16   30.21F FOG              
$$
 
NCZ078-087-090-091-093-098-101-171400-
SOUTHEASTERN NORTH CAROLINA
  
CITY           SKY/WX    TMP DP  RH WIND       PRES   REMARKS
LUMBERTON      CLOUDY    36  34  92 E10G21    30.11F FOG     WCI  28  
KINSTON        LGT RAIN  37  32  81 NE7       30.22S WCI  32          
KENANSVILLE    LGT RAIN  36  36 100 NE6       30.18S WCI  31          
NEW BERN       LGT RAIN  37  36  93 E12       30.20F FOG     WCI  30  
CHERRY POINT   RAIN      41  39  93 NE9       30.20F                  
BEAUFORT       LGT RAIN  43  40  89 NE8G17    30.18F                  
JACKSONVILLE   LGT RAIN  38  37  97 NE10      30.18F FOG     WCI  31  
WILMINGTON     CLOUDY    39  38  96 NE13      30.13S WCI  31          
$$